Tracking 35274 objects as of 11-Sep-2026
HD Live streaming from Space Station
objects crossing your sky now

DELTA 1 DEB


DELTA 1 DEB is no longer on orbit


NORAD ID: 21385
Int'l Code: 1975-052DF
Launch date: June 12, 1975
Source: United States (US)
Launch site: AIR FORCE WESTERN TEST RANGE (AFWTR)
Decay date: 2011-09-30

Note: This is SATELLITE DEBRIS
Your satellite tracking list
Your tracking list is empty




NASA's NSSDC Master Catalog

Two Line Element Set (TLE):
1 21385U 75052DF  11273.76291747 +.99999999 +00000-0 +17011-0 0  9997
2 21385 100.3624 246.6625 0026715 211.7601 148.2212 15.87608799006463
Source of the keplerian elements: AFSPC